User: anonymous   Login
Location: Unspecified
(0.0000°N, 0.0000°E)
Time: 18:19:56
(UTC+00:00)
Language:

STARLINK-11564 [DTC] - Orbit

View from above orbital plane
View from above orbital plane
View from above satellite
View from above satellite

Ground track
Ground track

The orbit is defined by the following mean orbital elements,

1 62913U          26145.33029257 +.00000000 +00000-0 +12646-2 0 00004
2 62913  43.0058 245.8796 0005219 274.3686  85.6585 15.70903136    09
Epoch (UTC): 25 May 2026 07:55:37
Eccentricity: 0.0005219
inclination: 43.0058°
perigee height: 353 km
apogee height: 360 km
right ascension of ascending node: 245.8796°
argument of perigee: 274.3686°
revolutions per day: 15.70903136
mean anomaly at epoch: 85.6585°

The dashed part of the orbit path shows where the satellite is in the earth's shadow,  

DLR